Weather History for Wilmington, OH

Change the Weather History Date:

Sunday, January 5, 2014

  Actual Average (KDAY) Record (KDAY)
Temperature  
Mean Temperature 36 °F 28 °F  
Max Temperature 45 °F 35 °F 62 °F (1939)
Min Temperature 25 °F 21 °F -15 °F (1904)
Degree Days  
Heating Degree Days 30 37  
Month to date heating degree days 185  
Since 1 July heating degree days 2344  
Cooling Degree Days 0 0  
Month to date cooling degree days 0  
Year to date cooling degree days 0  
Moisture  
Dew Point 33 °F    
Average Humidity 88    
Maximum Humidity 100    
Minimum Humidity 67    
Precipitation  
Precipitation 0.42 in 0.09 in 2.58 in (2005)
Month to date precipitation 0.49  
Year to date precipitation 0.49  
Snow  
Snow 0.00 in 0.30 in 2.70 in (1903)
Month to date snowfall 1.2  
Since 1 July snowfall 6.7  
Snow Depth -    
Sea Level Pressure  
Sea Level Pressure 29.75 in    
Wind  
Wind Speed 9 mph (South)    
Max Wind Speed 32 mph    
Max Gust Speed 45 mph    
Visibility 6 miles    
Events Rain , Snow    
T = Trace of Precipitation, MM = Missing Value Source: NWS Daily Summary

Daily Weather History Graph

Daily Weather History Graph

Search for Another Location

Airport:

Trip Planner

Search our weather history database for the weather conditions in past years. The results will help you decide how hot, cold, wet, or windy it might be!

Date:

Astronomy

Jan. 05, 2014 Rise Set
Actual Time 7:55 AM EST 5:26 PM EST
Civil Twilight 7:25 AM EST 5:56 PM EST
Nautical Twilight 6:52 AM EST 6:29 PM EST
Astronomical Twilight 6:19 AM EST 7:02 PM EST
Moon 10:38 AM EST (1/5) 10:51 PM EST (1/5)
Length of Visible Light 10h 30m
Length of Day
9h 30m
Waxing Crescent, 24% of the Moon is Illuminated
Jan 5
Waxing Crescent
Jan 7
First Quarter
Jan 15
Full
Jan 24
Last Quarter
Jan 30
New

Hourly Weather History & Observations

Time (EST) Temp. Windchill Dew Point Humidity Pressure Visibility Wind Dir Wind Speed Gust Speed Precip Events Conditions
12:54 AM 34.0 °F 28.8 °F 24.1 °F 67% 30.13 in 10.0 mi SSW 5.8 mph - N/A   Overcast
1:54 AM 34.0 °F - 24.1 °F 67% 30.12 in 10.0 mi Calm Calm - N/A   Overcast
2:54 AM 33.1 °F 28.7 °F 24.1 °F 70% 30.12 in 10.0 mi South 4.6 mph - N/A   Overcast
3:54 AM 33.1 °F 27.7 °F 25.0 °F 72% 30.11 in 10.0 mi South 5.8 mph - N/A   Overcast
4:54 AM 34.0 °F 28.8 °F 26.1 °F 73% 30.08 in 10.0 mi South 5.8 mph - N/A   Overcast
5:19 AM 34.0 °F 28.8 °F 26.1 °F 73% 30.01 in 10.0 mi SSE 5.8 mph - N/A   Overcast
5:54 AM 34.0 °F 28.8 °F 27.0 °F 75% 30.08 in 10.0 mi SSE 5.8 mph - N/A   Overcast
6:54 AM 35.1 °F 28.6 °F 28.0 °F 76% 30.08 in 10.0 mi South 8.1 mph - N/A   Overcast
7:54 AM 34.0 °F 27.2 °F 30.0 °F 85% 30.08 in 6.0 mi South 8.1 mph - N/A   Overcast
8:15 AM 33.1 °F 26.9 °F 30.9 °F 92% 29.98 in 1.8 mi SE 6.9 mph - N/A   Overcast
8:54 AM 33.1 °F 27.7 °F 33.1 °F 100% 30.05 in 1.2 mi SSE 5.8 mph - N/A   Overcast
9:39 AM 34.0 °F 28.8 °F 34.0 °F 100% 29.95 in 1.5 mi SE 5.8 mph - 0.00 in Rain Light Rain
9:47 AM 34.0 °F 28.0 °F 34.0 °F 100% 29.94 in 1.8 mi SE 6.9 mph - 0.01 in Rain Light Rain
9:54 AM 34.0 °F 28.0 °F 34.0 °F 100% 30.01 in 2.0 mi SE 6.9 mph - 0.01 in Rain Light Rain
10:51 AM 33.8 °F 25.3 °F 33.8 °F 100% 29.89 in 4.0 mi SE 11.5 mph - 0.00 in   Overcast
10:54 AM 35.1 °F 26.9 °F 34.0 °F 96% 29.95 in 4.0 mi SE 11.5 mph - 0.00 in   Overcast
11:54 AM 37.0 °F 29.8 °F 34.0 °F 89% 29.89 in 10.0 mi SSE 10.4 mph - N/A   Overcast
12:54 PM 37.9 °F 31.5 °F 35.1 °F 89% 29.80 in 10.0 mi SE 9.2 mph - N/A   Overcast
1:54 PM 41.0 °F 34.7 °F 35.1 °F 79% 29.71 in 10.0 mi SE 10.4 mph - N/A   Overcast
2:54 PM 43.0 °F 36.4 °F 36.0 °F 76% 29.68 in 10.0 mi SSE 12.7 mph - N/A   Mostly Cloudy
3:54 PM 42.1 °F 37.1 °F 36.0 °F 79% 29.68 in 10.0 mi SSE 8.1 mph - N/A   Overcast
4:54 PM 41.0 °F - 36.0 °F 82% 29.63 in 10.0 mi Calm Calm - 0.00 in Rain Light Rain
5:54 PM 37.9 °F 35.5 °F 37.0 °F 97% 29.59 in 9.0 mi ENE 3.5 mph - 0.02 in Rain Light Rain
6:39 PM 37.9 °F 34.4 °F 37.0 °F 97% 29.52 in 4.0 mi SSE 4.6 mph - 0.07 in Rain Rain
6:54 PM 37.9 °F 32.7 °F 37.0 °F 97% 29.56 in 4.0 mi SSE 6.9 mph - 0.10 in Rain Rain
7:04 PM 39.9 °F 34.5 °F 39.0 °F 97% 29.50 in 5.0 mi SSE 8.1 mph - 0.03 in Rain Rain
7:45 PM 42.1 °F 35.7 °F 41.0 °F 96% 29.46 in 4.0 mi South 11.5 mph - 0.11 in Rain Light Rain
7:54 PM 43.0 °F 36.0 °F 42.1 °F 97% 29.50 in 6.0 mi South 13.8 mph - 0.12 in Rain Light Rain
8:27 PM 43.0 °F 36.8 °F 42.1 °F 97% 29.42 in 4.0 mi South 11.5 mph - 0.01 in Rain Light Rain
8:43 PM 45.0 °F 37.9 °F 43.0 °F 93% 29.41 in 4.0 mi South 16.1 mph 23.0 mph 0.03 in Rain Rain
8:49 PM 44.6 °F 37.2 °F 42.8 °F 93% 29.40 in 4.0 mi South 17.3 mph - 0.04 in Rain Rain
8:54 PM 45.0 °F 37.6 °F 43.0 °F 93% 29.47 in 4.0 mi SSW 17.3 mph - 0.04 in Rain Light Rain
9:03 PM 39.9 °F 28.8 °F 39.0 °F 97% 29.45 in 3.0 mi WNW 27.6 mph 34.5 mph 0.02 in Rain Heavy Rain
9:11 PM 37.0 °F 25.6 °F 36.0 °F 96% 29.46 in 5.0 mi WNW 24.2 mph 34.5 mph 0.04 in Rain Light Rain
9:54 PM 34.0 °F 24.6 °F 33.1 °F 96% 29.54 in 7.0 mi WNW 13.8 mph - 0.11 in Rain Rain
10:31 PM 33.1 °F 22.2 °F 30.9 °F 92% 29.50 in 1.8 mi WNW 17.3 mph 25.3 mph 0.01 in Snow Light Snow
10:54 PM 30.9 °F 15.7 °F 28.9 °F 92% 29.61 in 0.8 mi WNW 32.2 mph 44.9 mph 0.02 in Snow Light Snow
11:07 PM 28.0 °F 13.3 °F 26.1 °F 92% 29.57 in 1.0 mi WNW 25.3 mph 36.8 mph 0.00 in Snow Light Snow
11:19 PM 26.1 °F 10.7 °F 23.0 °F 88% 29.58 in 2.0 mi WNW 25.3 mph 36.8 mph 0.00 in Snow Light Snow
11:27 PM 26.1 °F 10.1 °F 21.9 °F 84% 29.58 in 7.0 mi WNW 27.6 mph 39.1 mph 0.00 in   Overcast
11:54 PM 25.0 °F 10.2 °F 21.0 °F 85% 29.70 in 10.0 mi WNW 21.9 mph 33.4 mph 0.00 in   Overcast